Showing default

GAOFEN 12 04, 57654

Orbit data source: Space-Track

GAOFEN 12 04, 57654 is a payload satellite owned by PLA SSF (CN) in SSO that was launched on Sun, 20 Aug 2023 UTC via a CHANG ZHENG 4C launch vehicle from the Jiuquan Satellite Launch Center, China (JSC). Payloads include a variety of satellites, spacecraft, and rockets equipped with specific instruments for various scientific and technological missions. These include communications satellites like Starlink; space stations such as the ISS; scientific satellites like the Hubble; Earth observation satellites from companies like Planet Labs, Umbra, and HawkEye 360; GPS; miniature CubeSats for education and research; and military/defense satellites.

Loading next visibility...
GAOFEN 12 04 details
Identifier
57654, 2023-123A
Orbit
SSO
Last TLE update8 hours ago
Origin
Flag of CNPLA SSF (CN / PRC)
ManufacturerSAST
MissionOperational Defense Radar Imaging
Bus & MotorCS-L3000B?, Unknown motor
Mass~3,000 kg wet, ~3,000 kg dry
Launch date (UTC)
2023-08-20 (1 year ago)
Launch vehicle
CHANG ZHENG 4C
Launch site
Jiuquan Satellite Launch Center, China (JSC)
Object type
Payload
Rocket body
Debris
Shape & HBRBox + 3 Pan, 8 m
Radar Cross Section10.846 m², Large (>1 m²)

Expand to show TLE details & history

TLE from 8 hours ago
0 GAOFEN 12 04
1 57654U 23123A   24356.14790035  .00002620  00000-0  34748-3 0  9996
2 57654  97.9111 271.0100 0004775  85.6782 274.4976 14.80677358 72295
Epoch: 2024-12-21T03:32Z
Definitive object data (Epoch: 2024-12-21T03:32:58.59Z)
Latitude0.00001°
Longitude127.56265°
Altitude629.948 km
Speed7.544 km/s
True Right ascension18h 04m 02s
True Declination0° 00' 00"
Sunlit
Object was in daylight at TLE epoch
Visualization TLE readout
Latitude69.31045°
Longitude106.44265°
Altitude635.915 km
Speed7.548 km/s
Apparent Right ascension21h 08m 44s
Apparent Declination25° 01' 15"
Sunlit
Object is in daylight
Visualization observer readout
Local Sidereal Time11:00:20
Azimuth26.831° NE
Elevation-20.05°
Doppler factor1
Orbital elements
Apogee altitude627.571 km
Perigee altitude620.884 km
Semi-major axis7,002.364 km
Eccentricity0.0004775
Inclination97.9111°
RAAN271.01°
Arg. of periapsis85.6782°
True anomaly274.44305°
Mean anomaly274.4976°
Eccentric anomaly274.47032°
Mean motion3.70404 °/min
BSTAR0.00034748
Orbital period97.19 mins
Loading maneuver chart data...
Loading historical data...
Loading historical data...
Loading historical data...
Loading historical data...
Loading historical data...
Loading historical data...
Loading historical data...
Other satellites on launch #123 in the year 2023 (2023-08-20 UTC)

GAOFEN 12 04 Visibility forecast

Observer location: undefined°, undefined

Span
Click to sort rows by Start time (UTC) header in descending order
Start Az.
Max El. time (UTC)
Max El. Az.
Max El.
End time (UTC)
End Az.
7 mins2024-12-21 18:16:36.755Z149.034° SSE2024-12-21 18:19:36.755Z91.586° ESE39.661°2024-12-21 18:23:36.755Z357.444° N
7 mins2024-12-22 07:41:36.755Z2.249° NNE2024-12-22 07:44:36.755Z298.061° NW41.225°2024-12-22 07:48:36.755Z206.549° SW
|